Regional Weather Roundup
Issued by NWS

Home | Current Version | Previous Version | Text Only | Print | Product List | Glossary On
Versions: 1 2 3 4 5 6 7 8 9 10 11 12 13 14 15 16 17 18 19 20 21 22 23 24 25 26 27
000
ASUS45 KSLC 202110
RWRUT

UTAH REGIONAL WEATHER ROUNDUP
NATIONAL WEATHER SERVICE SALT LAKE CITY UT
300 PM MDT THU JUL 20 2017

UTZ001>011-023>025-202200-

NORTHERN UTAH

CITY           SKY/WX    TMP DP  RH WIND       PRES   REMARKS
BRIGHAM CITY     N/A     93  49  21 S13G20    30.04F
DUGWAY         PTSUNNY   95  49  20 S14G20    30.02  HX  92
HILL AFB       MOSUNNY   91  54  28 S15       30.08F
LOGAN            N/A     94  53  25 SW13      30.04F HX  91
OGDEN            N/A     92  54  27 S14G22    30.04F HX  90
SALT LAKE CITY PTSUNNY   92  55  28 S16G26    30.03F HX  90
TOOELE VALLEY    N/A     95  54  24 S20G25    30.03F HX  93
WENDOVER         N/A     95  51  22 S7        30.00F HX  92
HEBER CITY       N/A     91  46  21 SW15G21   30.14F
WEST JORDAN      N/A     90  64  41 SE12G18   30.08F HX  91

$$

UTZ011>015-024>027-202200-

CENTRAL/NORTHEAST UTAH

CITY           SKY/WX    TMP DP  RH WIND       PRES   REMARKS
PROVO AIRPORT  PTSUNNY   90  55  31 VRB5      30.09F
MOAB/CANYONLAN   N/A     95  50  21 VRB5      30.04F HX  92
DELTA            N/A     90  46  22 SW23G31   30.10F
PRICE            N/A     83  51  33 W26G35    30.19S
ROOSEVELT      SUNNY     90  54  29 SE6       30.15F
VERNAL         CLOUDY    91  54  28 VRB7      30.13F

$$

UTZ013>016-019>022-027-202200-

SOUTHERN UTAH

CITY           SKY/WX    TMP DP  RH WIND       PRES   REMARKS
BRYCE CANYON   CLOUDY    77  48  35 S6        30.35F
CEDAR CITY       N/A     84  52  33 SW13G20   30.21F
MILFORD          N/A     88  55  32 S21G30    30.13F
ST GEORGE        N/A     93  58  30 VRB3      30.01F HX  92
HANKSVILLE       N/A     97  48  19 SE7       30.06F HX  93
BLANDING         N/A     87  47  24 S7        30.27F

$$

REGIONAL REPORTS     COLORADO/ARIZONA

CITY           SKY/WX    TMP DP  RH WIND       PRES   REMARKS
CRAIG, CO      CLOUDY    87  46  24 W9        30.20F
GRAND JUNCTION SUNNY     94  53  25 W9        30.08F HX  91
RIFLE, CO      LGT RAIN  75  60  59 SW14      30.16F
MONTROSE, CO   CLOUDY    74  52  46 S10       30.21R
CORTEZ, CO     MOSUNNY   88  50  27 SW14G20   30.19F
COLORADO CITY    N/A     90  54  29 N5        30.19F
PAGE, AZ         N/A     96  54  24 N10G16    30.07F HX  94
GRAND CANYON     N/A     82  50  32 W10       30.31F
KINGMAN, AZ      N/A     92  55  28 VRB6      30.08F HX  90
FLAGSTAFF, AZ  PTSUNNY   59  53  80 VRB3      30.37F

$$

REGIONAL REPORTS    NEVADA/IDAHO/WYOMING

CITY           SKY/WX    TMP DP  RH WIND       PRES   REMARKS
LAS VEGAS, NV  PTSUNNY   96  59  29 VRB5      29.96F HX  95
ELY, NY          N/A     86  48  26 W10G20    30.17F
ELKO, NV         N/A     92  18   6 W7G21     30.10F
POCATELLO, ID  CLOUDY    87  40  19 W13       30.07F
BURLEY, ID       N/A     84  47  27 W10       30.05F
FORT BRIDGER,    N/A     81  50  34 S14       30.29F
EVANSTON, WY   CLOUDY    84  49  29 SW17G24   30.26F
ROCK SPRINGS,  CLOUDY    88  41  19 W8        30.22F
KEMMERER, WY     N/A     84  39  20 SW14G22   30.26F

$$




USA.gov is the U.S. government's official web portal to all federal, state and local government web resources and services.